User: anonymous   Login
Location: Albany
(35.0000°S, 118.0000°E)
Time: 00:45:24
(UTC-04:00)
Language:

ERS-1 Rocket - Orbit

View from above orbital plane
View from above orbital plane
View from above satellite
View from above satellite

Ground track
Ground track

The orbit data is extracted from the following two-line orbital elements,

1 21610U 91050F   16209.16373057  .00000028  00000-0  22830-4 0  9994
2 21610  98.6527 256.8746 0003205 172.2985 253.0372 14.40747834313316
Epoch (UTC): 27 July 2016 03:55:46
Eccentricity: 0.0003205
inclination: 98.6527°
perigee height: 754 km
apogee height: 758 km
right ascension of ascending node: 256.8746°
argument of perigee: 172.2985°
revolutions per day: 14.40747834
mean anomaly at epoch: 253.0372°
orbit number at epoch: 31331

The dashed part of the orbit path shows where the satellite is in the earth's shadow,  

DLR